Madison, MN

11:42 AM CST on December 05, 2019 (GMT -0600)
Madison-Lac Qui Parle County

Weather History for KDXX - October, 2019

Change the Weather History Date:

Monday, October 28, 2019

  Actual Average (KAQP) Record (KAQP)
Temperature  
Mean Temperature 30 °F -  
Max Temperature 37 °F 48 °F 69 °F (2016)
Min Temperature 24 °F 30 °F 19 °F (2008)
Degree Days  
Heating Degree Days 34    
Moisture  
Dew Point 19 °F    
Average Humidity 60    
Maximum Humidity 80    
Minimum Humidity 41    
Precipitation  
Precipitation 0.00 in - - ()
Sea Level Pressure  
Sea Level Pressure 30.10 in    
Wind  
Wind Speed 9 mph (WSW)    
Max Wind Speed 16 mph    
Max Gust Speed 21 mph    
Visibility 10 miles    
Events      
Averages and records for this station are not official NWS values.
T = Trace of Precipitation, MM = Missing Value Source: NWS Daily Summary

Daily Weather History Graph

Daily Weather History Graph

Search for Another Location

Airport or City:

Astronomy

Oct. 28, 2019 Rise Set
Actual Time 7:57 AM CDT 6:18 PM CDT
Civil Twilight 7:27 AM CDT 6:49 PM CDT
Nautical Twilight 6:52 AM CDT 7:23 PM CDT
Astronomical Twilight 6:18 AM CDT 7:57 PM CDT
Moon 8:19 AM CDT (10/28) 7:04 PM CDT (10/28)
Length of Visible Light 11h 22m
Length of Day
10h 21m
New Moon, 0% of the Moon is Illuminated
Oct 28
New Moon
Nov 4
First Quarter
Nov 12
Full
Nov 19
Last Quarter
Nov 26
New

Hourly Weather History & Observations

Time (CDT) Temp. Windchill Dew Point Humidity Pressure Visibility Wind Dir Wind Speed Gust Speed Precip Events Conditions
12:15 AM 33.8 °F 24.8 °F 17.6 °F 52% 30.15 in 10.0 mi NW 12.7 mph - N/A   Overcast
12:16 AM 33.8 °F 25.3 °F 17.6 °F 52% 30.15 in 10.0 mi NW 11.5 mph - N/A   Overcast
12:35 AM 33.8 °F 27.0 °F 19.4 °F 56% 30.14 in 10.0 mi NW 8.1 mph - N/A   Overcast
12:36 AM 33.8 °F 27.0 °F 19.4 °F 56% 30.14 in 10.0 mi NW 8.1 mph - N/A   Overcast
12:59 AM 33.8 °F 25.8 °F 19.4 °F 56% 30.14 in 10.0 mi NW 10.4 mph - N/A   Overcast
1:17 AM 33.8 °F 27.0 °F 19.4 °F 56% 30.14 in 10.0 mi WNW 8.1 mph - N/A   Overcast
1:35 AM 33.8 °F 26.4 °F 19.4 °F 56% 30.13 in 10.0 mi WNW 9.2 mph - N/A   Overcast
1:36 AM 33.8 °F 26.4 °F 19.4 °F 56% 30.13 in 10.0 mi WNW 9.2 mph - N/A   Overcast
1:55 AM 33.8 °F 23.9 °F 17.6 °F 52% 30.12 in 10.0 mi NW 15.0 mph 20.7 mph N/A   Overcast
1:56 AM 33.8 °F 23.9 °F 17.6 °F 52% 30.12 in 10.0 mi WNW 15.0 mph 20.7 mph N/A   Overcast
2:15 AM 30.2 °F 22.6 °F 19.4 °F 64% 30.13 in 10.0 mi WNW 8.1 mph - N/A   Scattered Clouds
2:19 AM 30.2 °F 22.6 °F 19.4 °F 64% 30.13 in 10.0 mi WNW 8.1 mph - N/A   Scattered Clouds
2:38 AM 30.2 °F 20.2 °F 17.6 °F 60% 30.13 in 10.0 mi WNW 12.7 mph 17.3 mph N/A   Clear
2:55 AM 30.2 °F 21.9 °F 17.6 °F 60% 30.14 in 10.0 mi WNW 9.2 mph - N/A   Clear
3:15 AM 28.4 °F 22.2 °F 17.6 °F 64% 30.14 in 10.0 mi West 5.8 mph - N/A   Clear
3:16 AM 28.4 °F 22.2 °F 17.6 °F 64% 30.14 in 10.0 mi West 5.8 mph - N/A   Scattered Clouds
3:35 AM 30.2 °F 22.6 °F 19.4 °F 64% 30.12 in 10.0 mi West 8.1 mph - N/A   Mostly Cloudy
3:36 AM 30.2 °F 22.6 °F 19.4 °F 64% 30.12 in 10.0 mi West 8.1 mph - N/A   Mostly Cloudy
3:58 AM 28.4 °F 22.2 °F 19.4 °F 69% 30.11 in 10.0 mi West 5.8 mph - N/A   Scattered Clouds
4:16 AM 26.6 °F 20.0 °F 19.4 °F 74% 30.12 in 10.0 mi WSW 5.8 mph - N/A   Clear
4:35 AM 26.6 °F 22.6 °F 21.2 °F 80% 30.12 in 10.0 mi West 3.5 mph - N/A   Clear
4:36 AM 26.6 °F 22.6 °F 21.2 °F 80% 30.12 in 10.0 mi West 3.5 mph - N/A   Clear
4:55 AM 26.6 °F 20.0 °F 19.4 °F 74% 30.12 in 10.0 mi West 5.8 mph - N/A   Clear
4:56 AM 26.6 °F 19.1 °F 19.4 °F 74% 30.12 in 10.0 mi West 6.9 mph - N/A   Clear
5:15 AM 26.6 °F 19.1 °F 19.4 °F 74% 30.11 in 10.0 mi West 6.9 mph - N/A   Clear
5:37 AM 26.6 °F 19.1 °F 19.4 °F 74% 30.11 in 10.0 mi West 6.9 mph - N/A   Clear
5:55 AM 26.6 °F 20.0 °F 19.4 °F 74% 30.10 in 10.0 mi West 5.8 mph - N/A   Clear
6:15 AM 26.6 °F 20.0 °F 17.6 °F 69% 30.11 in 10.0 mi West 5.8 mph - N/A   Clear
6:16 AM 26.6 °F 20.0 °F 17.6 °F 69% 30.11 in 10.0 mi West 5.8 mph - N/A   Clear
6:35 AM 24.8 °F 17.9 °F 17.6 °F 74% 30.11 in 10.0 mi West 5.8 mph - N/A   Clear
6:58 AM 24.8 °F 17.9 °F 17.6 °F 74% 30.11 in 10.0 mi WSW 5.8 mph - N/A   Clear
7:17 AM 26.6 °F 19.1 °F 17.6 °F 69% 30.11 in 10.0 mi WSW 6.9 mph - N/A   Clear
7:36 AM 26.6 °F 18.2 °F 17.6 °F 69% 30.10 in 10.0 mi West 8.1 mph - N/A   Clear
7:55 AM 26.6 °F 18.2 °F 17.6 °F 69% 30.11 in 10.0 mi West 8.1 mph - N/A   Clear
7:56 AM 26.6 °F 17.5 °F 17.6 °F 69% 30.11 in 10.0 mi West 9.2 mph - N/A   Clear
8:15 AM 26.6 °F 20.0 °F 17.6 °F 69% 30.10 in 10.0 mi WSW 5.8 mph - N/A   Clear
8:37 AM 26.6 °F 20.0 °F 19.4 °F 74% 30.11 in 10.0 mi SW 5.8 mph - N/A   Clear
8:56 AM 26.6 °F 19.1 °F 19.4 °F 74% 30.12 in 10.0 mi WSW 6.9 mph - N/A   Clear
9:15 AM 28.4 °F 19.7 °F 17.6 °F 64% 30.12 in 10.0 mi WSW 9.2 mph - N/A   Clear
9:16 AM 28.4 °F 21.2 °F 17.6 °F 64% 30.12 in 10.0 mi WSW 6.9 mph - N/A   Clear
9:35 AM 30.2 °F 23.4 °F 17.6 °F 60% 30.12 in 10.0 mi WSW 6.9 mph - N/A   Clear
9:36 AM 30.2 °F 22.6 °F 17.6 °F 60% 30.12 in 10.0 mi WSW 8.1 mph - N/A   Clear
9:59 AM 30.2 °F 21.3 °F 15.8 °F 55% 30.11 in 10.0 mi West 10.4 mph - N/A   Clear
10:16 AM 30.2 °F 21.9 °F 15.8 °F 55% 30.11 in 10.0 mi West 9.2 mph - N/A   Clear
10:35 AM 32.0 °F 22.5 °F 15.8 °F 51% 30.11 in 10.0 mi West 12.7 mph 16.1 mph N/A   Clear
10:36 AM 32.0 °F 24.2 °F 15.8 °F 51% 30.11 in 10.0 mi West 9.2 mph 16.1 mph N/A   Clear
10:55 AM 32.0 °F 23.6 °F 15.8 °F 51% 30.10 in 10.0 mi West 10.4 mph - N/A   Clear
10:56 AM 32.0 °F 24.2 °F 15.8 °F 51% 30.10 in 10.0 mi WSW 9.2 mph - N/A   Clear
11:18 AM 32.0 °F 23.6 °F 14.0 °F 48% 30.10 in 10.0 mi West 10.4 mph 18.4 mph N/A   Clear
11:37 AM 33.8 °F 24.3 °F 14.0 °F 44% 30.11 in 10.0 mi West 13.8 mph - N/A   Clear
11:56 AM 33.8 °F 24.8 °F 15.8 °F 48% 30.10 in 10.0 mi WNW 12.7 mph 18.4 mph N/A   Clear
12:15 PM 33.8 °F 25.3 °F 15.8 °F 48% 30.09 in 10.0 mi West 11.5 mph 18.4 mph N/A   Clear
12:16 PM 33.8 °F 23.5 °F 15.8 °F 48% 30.09 in 10.0 mi West 16.1 mph - N/A   Clear
12:35 PM 35.6 °F 26.2 °F 15.8 °F 44% 30.09 in 10.0 mi West 15.0 mph - N/A   Clear
12:40 PM 35.6 °F 27.1 °F 15.8 °F 44% 30.09 in 10.0 mi West 12.7 mph - N/A   Clear
12:57 PM 35.6 °F 27.5 °F 15.8 °F 44% 30.09 in 10.0 mi West 11.5 mph - N/A   Clear
1:15 PM 35.6 °F 27.1 °F 15.8 °F 44% 30.08 in 10.0 mi West 12.7 mph 16.1 mph N/A   Clear
1:35 PM 35.6 °F 27.5 °F 15.8 °F 44% 30.07 in 10.0 mi West 11.5 mph - N/A   Clear
1:36 PM 35.6 °F 27.5 °F 15.8 °F 44% 30.08 in 10.0 mi West 11.5 mph - N/A   Clear
1:55 PM 35.6 °F 29.2 °F 15.8 °F 44% 30.07 in 10.0 mi West 8.1 mph 16.1 mph N/A   Clear
1:56 PM 35.6 °F 29.2 °F 15.8 °F 44% 30.07 in 10.0 mi West 8.1 mph - N/A   Clear
2:37 PM 37.4 °F 32.1 °F 17.6 °F 45% 30.06 in 10.0 mi WSW 6.9 mph - N/A   Clear
2:56 PM 37.4 °F 30.8 °F 15.8 °F 41% 30.06 in 10.0 mi West 9.2 mph - N/A   Clear
3:16 PM 37.4 °F 31.4 °F 17.6 °F 45% 30.05 in 10.0 mi SW 8.1 mph - N/A   Clear
3:35 PM 37.4 °F 32.8 °F 17.6 °F 45% 30.04 in 10.0 mi WSW 5.8 mph - N/A   Clear
3:57 PM 37.4 °F 32.1 °F 17.6 °F 45% 30.04 in 10.0 mi West 6.9 mph - N/A   Clear
4:16 PM 37.4 °F 32.1 °F 15.8 °F 41% 30.04 in 10.0 mi WSW 6.9 mph 16.1 mph N/A   Clear
4:35 PM 37.4 °F 30.8 °F 17.6 °F 45% 30.04 in 10.0 mi WSW 9.2 mph - N/A   Clear
4:36 PM 37.4 °F 30.3 °F 17.6 °F 45% 30.05 in 10.0 mi WSW 10.4 mph - N/A   Clear
4:55 PM 37.4 °F 32.1 °F 17.6 °F 45% 30.04 in 10.0 mi SW 6.9 mph - N/A   Clear
5:19 PM 37.4 °F 31.4 °F 19.4 °F 48% 30.04 in 10.0 mi SW 8.1 mph - N/A   Clear
5:36 PM 37.4 °F 32.1 °F 19.4 °F 48% 30.04 in 10.0 mi SW 6.9 mph - N/A   Clear
5:56 PM 35.6 °F 31.7 °F 19.4 °F 52% 30.04 in 10.0 mi SW 4.6 mph - N/A   Clear
6:15 PM 35.6 °F 30.7 °F 19.4 °F 52% 30.04 in 10.0 mi WSW 5.8 mph - N/A   Clear
6:16 PM 35.6 °F 30.7 °F 19.4 °F 52% 30.04 in 10.0 mi WSW 5.8 mph - N/A   Clear
6:35 PM 33.8 °F 29.6 °F 21.2 °F 60% 30.05 in 10.0 mi WSW 4.6 mph - N/A   Clear
6:39 PM 33.8 °F 29.6 °F 21.2 °F 60% 30.05 in 10.0 mi WSW 4.6 mph - N/A   Clear
6:58 PM 33.8 °F 29.6 °F 21.2 °F 60% 30.06 in 10.0 mi SW 4.6 mph - N/A   Clear
7:15 PM 33.8 °F 29.6 °F 21.2 °F 60% 30.07 in 10.0 mi SSW 4.6 mph - N/A   Clear
7:35 PM 33.8 °F 29.6 °F 21.2 °F 60% 30.07 in 10.0 mi SSW 4.6 mph - N/A   Clear
7:55 PM 32.0 °F 27.5 °F 21.2 °F 64% 30.07 in 10.0 mi SSW 4.6 mph - N/A   Clear
8:19 PM 32.0 °F 27.5 °F 21.2 °F 64% 30.07 in 10.0 mi SW 4.6 mph - N/A   Clear
8:56 PM 30.2 °F 25.4 °F 23.0 °F 75% 30.07 in 10.0 mi SSW 4.6 mph - N/A   Clear
9:15 PM 30.2 °F 25.4 °F 23.0 °F 75% 30.08 in 10.0 mi SW 4.6 mph - N/A   Clear
9:16 PM 30.2 °F 25.4 °F 23.0 °F 75% 30.08 in 10.0 mi SW 4.6 mph - N/A   Clear
9:35 PM 30.2 °F 26.7 °F 23.0 °F 75% 30.08 in 10.0 mi SW 3.5 mph - N/A   Clear
9:40 PM 30.2 °F 25.4 °F 23.0 °F 75% 30.08 in 10.0 mi SW 4.6 mph - N/A   Clear
9:57 PM 30.2 °F 24.3 °F 23.0 °F 75% 30.09 in 10.0 mi SW 5.8 mph - N/A   Clear
10:16 PM 30.2 °F 24.3 °F 23.0 °F 75% 30.09 in 10.0 mi SW 5.8 mph - N/A   Clear
10:36 PM 28.4 °F 23.3 °F 23.0 °F 80% 30.10 in 10.0 mi SW 4.6 mph - N/A   Clear
10:55 PM 28.4 °F 24.6 °F 21.2 °F 74% 30.10 in 10.0 mi SSW 3.5 mph - N/A   Clear
10:56 PM 28.4 °F 24.6 °F 21.2 °F 74% 30.10 in 10.0 mi SSW 3.5 mph - N/A   Clear
11:19 PM 28.4 °F 23.3 °F 21.2 °F 74% 30.10 in 10.0 mi SW 4.6 mph - N/A   Clear
11:36 PM 28.4 °F 22.2 °F 21.2 °F 74% 30.10 in 10.0 mi SW 5.8 mph - N/A   Clear
11:56 PM 28.4 °F 23.3 °F 21.2 °F 74% 30.11 in 10.0 mi WSW 4.6 mph - N/A   Clear